Weather History for KCNY - October, 2012

Change the Weather History Date:

Wednesday, October 17, 2012

  Actual Average Record
Temperature  
Mean Temperature 55 °F 53 °F  
Max Temperature 66 °F 68 °F 93 °F (1991)
Min Temperature 43 °F 39 °F 30 °F (1967)
Degree Days  
Heating Degree Days 10 12  
Month to date heating degree days 112 144  
Since 1 July heating degree days 134 202  
Cooling Degree Days 0 0  
Month to date cooling degree days 0 4  
Year to date cooling degree days 1513 1288  
Growing Degree Days 4 (Base 50)    
Moisture  
Dew Point 9 °F    
Average Humidity 24    
Maximum Humidity 39    
Minimum Humidity 8    
Precipitation  
Precipitation 0.00 in 0.04 in 0.95 in (1971)
Month to date precipitation 0.43 0.73  
Year to date precipitation 2.60 7.07  
Sea Level Pressure  
Sea Level Pressure 29.94 in    
Wind  
Wind Speed 10 mph (WNW)    
Max Wind Speed 20 mph    
Max Gust Speed 31 mph    
Visibility 10 miles    
Events      
T = Trace of Precipitation, MM = Missing Value Source: NWS Daily Summary

Daily Weather History Graph

Daily Weather History Graph

Search for Another Location

Airport or City:

Trip Planner

Search our weather history database for the weather conditions in past years. The results will help you decide how hot, cold, wet, or windy it might be!

Date:

Astronomy

Oct. 17, 2012 Rise Set
Actual Time 7:30 AM MDT 6:37 PM MDT
Civil Twilight 7:03 AM MDT 7:03 PM MDT
Nautical Twilight 6:33 AM MDT 7:34 PM MDT
Astronomical Twilight 6:02 AM MDT 8:05 PM MDT
Moon 10:07 AM MDT (10/17) 8:18 PM MDT (10/17)
Length of Visible Light 11h 59m
Length of Day
11h 06m
Waxing Crescent, 7% of the Moon is Illuminated
Oct 17
Waxing Crescent
Oct 21
First Quarter
Oct 29
Full
Nov 6
Last Quarter
Nov 13
New

Hourly Weather History & Observations

Time (MDT) Temp. Windchill Dew Point Humidity Pressure Visibility Wind Dir Wind Speed Gust Speed Precip Events Conditions
12:53 AM 60.1 °F - 35.1 °F 39% 29.79 in 10.0 mi NW 15.0 mph - N/A   Clear
1:53 AM 57.9 °F - 28.0 °F 32% 29.81 in 10.0 mi West 10.4 mph - N/A   Clear
2:53 AM 55.9 °F - 21.9 °F 27% 29.82 in 10.0 mi West 10.4 mph - N/A   Clear
3:53 AM 55.0 °F - 10.0 °F 17% 29.83 in 10.0 mi NW 16.1 mph - N/A   Clear
4:53 AM 50.0 °F - 9.0 °F 19% 29.85 in 10.0 mi WNW 12.7 mph - N/A   Clear
5:53 AM 48.9 °F - 8.1 °F 19% 29.88 in 10.0 mi West 11.5 mph - N/A   Clear
6:53 AM 45.0 °F 40.1 °F 10.9 °F 25% 29.93 in 10.0 mi West 9.2 mph - N/A   Clear
7:53 AM 46.9 °F - 10.9 °F 23% 29.96 in 10.0 mi WNW 5.8 mph - N/A   Clear
8:53 AM 52.0 °F - 10.0 °F 19% 29.96 in 10.0 mi WNW 15.0 mph - N/A   Clear
9:53 AM 55.9 °F - 6.1 °F 14% 29.97 in 10.0 mi WNW 17.3 mph - N/A   Clear
10:53 AM 57.9 °F - 7.0 °F 13% 29.98 in 10.0 mi NW 15.0 mph - N/A   Clear
11:53 AM 60.1 °F - 6.1 °F 12% 29.97 in 10.0 mi NNW 3.5 mph - N/A   Clear
12:53 PM 61.0 °F - 6.1 °F 11% 29.97 in 10.0 mi West 8.1 mph - N/A   Clear
1:53 PM 63.0 °F - 1.9 °F 9% 29.95 in 10.0 mi West 8.1 mph 17.3 mph N/A   Clear
2:53 PM 64.0 °F - 1.0 °F 8% 29.94 in 10.0 mi WSW 13.8 mph 19.6 mph N/A   Clear
3:53 PM 64.9 °F - 1.9 °F 8% 29.93 in 10.0 mi West 10.4 mph 20.7 mph N/A   Clear
4:53 PM 64.9 °F - 3.0 °F 9% 29.93 in 10.0 mi West 10.4 mph - N/A   Clear
5:53 PM 64.0 °F - 1.9 °F 8% 29.94 in 10.0 mi WSW 8.1 mph - N/A   Clear
6:53 PM 57.9 °F - 5.0 °F 12% 29.98 in 10.0 mi West 6.9 mph - N/A   Clear
7:53 PM 57.9 °F - 3.9 °F 11% 29.99 in 10.0 mi West 10.4 mph - N/A   Clear
8:53 PM 57.9 °F - 3.9 °F 11% 29.98 in 10.0 mi West 15.0 mph - N/A   Clear
9:53 PM 54.0 °F - 5.0 °F 14% 30.01 in 10.0 mi West 11.5 mph - N/A   Clear
10:53 PM 51.1 °F - 5.0 °F 15% 30.04 in 10.0 mi West 6.9 mph - N/A   Clear
11:53 PM 46.0 °F 44.8 °F 8.1 °F 21% 30.06 in 10.0 mi ENE 3.5 mph - N/A   Clear